This is the latest recevied weather packets stored in our database for station/object HJ3GNC-13. If no packets are shown the sender has not sent any weather packets the latest 10 day(s).
| Time | Temp. | Humidity | Pressure | Rain* | Wind** | Luminosity | Snow |
|---|---|---|---|---|---|---|---|
| 1777833143 | 15° C | 77% | 1014 hPa | 0 mm | - | - | - |
| 1777832193 | 15° C | 77% | 1015 hPa | 0 mm | - | - | - |
| 1777831251 | 15° C | 77% | 1015 hPa | 0 mm | - | - | - |
| 1777830306 | 15° C | 77% | 1015 hPa | 0 mm | - | - | - |
| 1777829361 | 15° C | 77% | 1016 hPa | 0 mm | - | - | - |
| 1777828390 | 15° C | 77% | 1016 hPa | 0 mm | - | - | - |
| 1777827414 | 15.56° C | 77% | 1016 hPa | 0 mm | - | - | - |
| 1777826470 | 14.44° C | 82% | 1016 hPa | 0 mm | - | - | - |
| 1777825472 | 14.44° C | 83% | 1016 hPa | 0 mm | - | - | - |
| 1777824487 | 14.44° C | 84% | 1016 hPa | 0 mm | - | - | - |
| 1777823543 | 14.44° C | 84% | 1016 hPa | 0 mm | - | - | - |
| 1777822601 | 14.44° C | 85% | 1017 hPa | 0 mm | - | - | - |
| 1777821649 | 14.44° C | 85% | 1017 hPa | 0 mm | - | - | - |
| 1777820679 | 14.44° C | 84% | 1017 hPa | 0 mm | - | - | - |
| 1777819737 | 14.44° C | 85% | 1017 hPa | 0 mm | - | - | - |
| 1777818794 | 14.44° C | 86% | 1017 hPa | 0 mm | - | - | - |
| 1777817853 | 14.44° C | 88% | 1018 hPa | 0 mm | - | - | - |
| 1777816910 | 14.44° C | 91% | 1018 hPa | 0 mm | - | - | - |
| 1777815966 | 14.44° C | 91% | 1018 hPa | 0 mm | - | - | - |
| 1777815018 | 13.33° C | 95% | 1018 hPa | 0 mm | - | - | - |
| 1777814075 | 13.33° C | 96% | 1018 hPa | 0 mm | - | - | - |
| 1777813131 | 12.78° C | 99% | 1018 hPa | 0 mm | - | - | - |
| 1777812187 | 11.11° C | 97% | 1018 hPa | 0 mm | - | - | - |
| 1777811242 | 11.11° C | 97% | 1018 hPa | 0 mm | - | - | - |
| 1777810300 | 11.11° C | 97% | 1018 hPa | 0 mm | - | - | - |
* Rain latest hour (hover to see other rain measurements)
** Current wind speed in m/s (hover to see current wind gust speed)